CW2224 Weather Reports


Display with metric or nautical units.
time (UTC)temp
F
wind
direction
speed
MPH
gust
MPH
rain 1hr
in
rain 24hr
in
rain mn
in
humidity
%
barometer
mb
20260507031822 56 212 3.0 6.0 0.00 0.00 0.00 78 1019.6
20260507030328 56 209 4.0 10.0 0.00 0.00 0.00 78 1019.4
20260507024825 57 247 4.0 9.0 0.00 0.00 0.00 77 1019.3
20260507023323 57 254 4.0 9.0 0.00 0.00 0.00 76 1019.3
20260507021853 58 226 4.0 8.0 0.00 0.00 0.00 76 1019.2
20260507020329 57 234 2.0 5.0 0.00 0.00 0.00 76 1019.3
20260507014830 57 260 3.0 10.0 0.00 0.00 0.00 75 1019.2
20260507013332 57 220 3.0 7.0 0.00 0.00 0.00 76 1019.2
20260507011839 58 221 5.0 14.0 0.00 0.00 0.00 75 1019.3
20260507010345 58 245 2.0 7.0 0.00 0.00 0.00 75 1019.3
20260507004830 58 285 3.0 7.0 0.00 0.00 0.00 75 1019.3
20260507003357 58 215 3.0 8.0 0.00 0.00 0.00 75 1019.4
20260507001843 58 284 3.0 8.0 0.00 0.00 0.00 75 1019.4
20260507000351 58 252 4.0 9.0 0.00 0.00 0.00 74 1019.4
20260506234849 58 256 5.0 8.0 0.00 0.00 0.00 74 1019.4
20260506233324 58 247 4.0 9.0 0.00 0.00 0.00 74 1019.3
20260506231826 58 215 3.0 8.0 0.00 0.00 0.00 74 1019.5
20260506230328 57 290 6.0 12.0 0.00 0.00 0.00 74 1019.4
20260506224828 57 232 4.0 9.0 0.00 0.00 0.00 75 1019.4
20260506223328 57 231 5.0 10.0 0.00 0.00 0.00 74 1019.5
20260506221830 57 273 5.0 10.0 0.00 0.00 0.00 75 1019.6
20260506220332 57 225 4.0 8.0 0.00 0.00 0.00 76 1019.6
20260506214854 57 246 3.0 7.0 0.00 0.00 0.00 76 1019.7
20260506213340 57 276 2.0 9.0 0.00 0.00 0.00 76 1019.6
20260506211826 57 267 3.0 12.0 0.00 0.00 0.00 76 1019.6
20260506210352 57 260 3.0 8.0 0.00 0.00 0.00 77 1019.7
20260506204849 57 204 3.0 7.0 0.00 0.00 0.00 78 1019.8
20260506203334 56 270 5.0 11.0 0.00 0.00 0.00 78 1019.8
20260506201841 56 230 3.0 7.0 0.00 0.00 0.00 80 1019.8
20260506200336 56 254 3.0 8.0 0.00 0.00 0.00 80 1019.7
20260506194843 55 250 3.0 9.0 0.00 0.00 0.00 80 1019.7
20260506193327 55 256 2.0 6.0 0.00 0.00 0.00 82 1019.5
20260506191829 55 202 3.0 6.0 0.00 0.00 0.00 83 1019.4
20260506190330 55 237 2.0 6.0 0.00 0.00 0.00 84 1019.5
20260506184837 55 248 4.0 7.0 0.00 0.00 0.00 85 1019.5
20260506183344 55 277 1.0 9.0 0.00 0.00 0.00 85 1019.5
20260506181842 55 245 2.0 7.0 0.00 0.00 0.00 86 1019.2
20260506180326 55 227 3.0 5.0 0.00 0.00 0.00 87 1019.1
20260506174828 54 247 5.0 9.0 0.00 0.00 0.00 88 1019.1
20260506173326 54 213 1.0 4.0 0.00 0.00 0.00 91 1019.2
20260506171828 54 264 2.0 4.0 0.00 0.00 0.00 92 1019.4
20260506170334 54 262 1.0 5.0 0.00 0.00 0.00 92 1019.3
20260506164832 53 265 3.0 5.0 0.00 0.00 0.00 92 1019.1
20260506163333 54 284 3.0 5.0 0.00 0.00 0.00 92 1018.8
20260506161835 53 223 1.0 6.0 0.00 0.00 0.00 93 1018.4
20260506160336 53 229 3.0 6.0 0.00 0.00 0.00 92 1018.7
20260506154843 53 254 1.0 5.0 0.00 0.00 0.00 92 1018.9
20260506153327 53 244 3.0 6.0 0.00 0.00 0.00 92 1018.8
20260506151828 53 250 3.0 5.0 0.00 0.00 0.00 92 1018.5
20260506150330 53 253 3.0 7.0 0.00 0.00 0.00 91 1018.6
20260506144832 53 263 3.0 5.0 0.00 0.00 0.00 91 1018.8
20260506143337 53 249 3.0 5.0 0.00 0.00 0.00 91 1018.4
20260506141839 54 216 3.0 5.0 0.00 0.00 0.00 91 1018.1
20260506140337 54 224 1.0 3.0 0.00 0.00 0.00 90 1018.2
20260506134822 54 193 2.0 5.0 0.00 0.00 0.00 89 1018.0
20260506133324 54 219 1.0 5.0 0.00 0.00 0.00 89 1018.1
20260506131825 54 219 2.0 4.0 0.00 0.00 0.00 89 1017.9
20260506130326 54 227 1.0 4.0 0.00 0.00 0.00 89 1017.8
20260506124828 54 234 0.0 3.0 0.00 0.00 0.00 89 1017.7
20260506123329 54 234 2.0 3.0 0.00 0.00 0.00 89 1017.6
20260506121829 54 234 1.0 4.0 0.00 0.00 0.00 88 1017.5
20260506120330 54 234 3.0 5.0 0.00 0.00 0.00 87 1017.6
20260506114835 54 202 3.0 5.0 0.00 0.00 0.00 87 1017.4
20260506113340 54 246 2.0 5.0 0.00 0.00 0.00 86 1017.5
20260506111843 54 338 3.0 8.0 0.00 0.00 0.00 85 1017.4
20260506110347 54 249 3.0 8.0 0.00 0.00 0.00 85 1017.4
20260506104848 54 251 1.0 7.0 0.00 0.00 0.00 84 1017.2
20260506103329 54 241 2.0 6.0 0.00 0.00 0.00 84 1017.0
20260506101830 55 279 2.0 6.0 0.00 0.00 0.00 84 1017.0
20260506100331 55 258 2.0 8.0 0.00 0.00 0.00 83 1016.8
20260506094833 55 246 5.0 10.0 0.00 0.00 0.00 83 1016.7
20260506093335 55 242 3.0 8.0 0.00 0.00 0.00 83 1016.7
20260506091842 55 236 2.0 6.0 0.00 0.00 0.00 83 1016.5
20260506090326 55 235 1.0 6.0 0.00 0.00 0.00 83 1016.4
20260506084849 56 252 2.0 6.0 0.00 0.00 0.00 82 1016.3
20260506083329 56 261 3.0 9.0 0.00 0.00 0.00 82 1016.1
20260506081831 56 253 2.0 5.0 0.00 0.00 0.00 82 1016.2
20260506080332 56 246 3.0 6.0 0.00 0.00 0.00 82 1016.2
20260506073356 56 190 2.0 6.0 0.00 0.00 0.00 83 1016.0
20260506071822 56 216 1.0 5.0 0.00 0.00 0.00 82 1016.0
20260506070328 57 230 2.0 7.0 0.00 0.00 0.00 81 1015.8
20260506061848 58 218 2.0 8.0 0.00 0.00 0.00 80 1015.4
20260506060328 58 219 2.0 7.0 0.00 0.00 0.00 79 1015.2
20260506050333 60 210 3.0 6.0 0.00 0.00 0.00 77 1014.7
20260506044829 60 235 2.0 5.0 0.00 0.00 0.00 76 1014.6
20260506043336 60 207 1.0 4.0 0.00 0.00 0.00 76 1014.6
20260506041843 61 202 1.0 3.0 0.00 0.00 0.00 76 1014.5
20260506040348 61 202 1.0 3.0 0.00 0.00 0.00 76 1014.6
20260506034829 61 202 1.0 5.0 0.00 0.00 0.00 74 1014.5
20260506033326 62 202 3.0 5.0 0.00 0.00 0.00 73 1014.3